Tracking 18630 objects as of 23-May-2017
HD Live streaming from Space Station
objects crossing your sky now

CZ-4 DEB

Track CZ-4 DEB now!
10-day predictions


NORAD ID: 26259
Int'l Code: 1999-057EV
Perigee: 667.4 km
Apogee: 799.0 km
Inclination: 98.6 °
Period: 99.3 minutes
Semi major axis: 7104 km
RCS: 0.031 m2 (small)
Launch date: October 14, 1999
Source: People's Republic of China (PRC)
Launch site: Taiyaun Space Center, China (TSC)

Note: This is SATELLITE DEBRIS
Your satellite tracking list
Your tracking list is empty





NASA's NSSDC Master Catalog

Two Line Element Set (TLE):
1 26259U 99057EV  17141.93669919 +.00000792 +00000-0 +20624-3 0  9995
2 26259 098.5577 124.2671 0092616 112.1780 302.1126 14.49871549902079
Source of the keplerian elements: AFSPC